{"data":{"norad_id":60520,"intl_designator":"2024-149BE","name":"IPERDRONE.0","alt_names":[],"object_type":"PAYLOAD","status":"ACTIVE","operator":null,"country":"IT","launch_date":"2024-08-16","launch_site_code":"AFWTR","launch_vehicle":null,"mission":null,"orbit_class":"UNKNOWN","rcs_meters":null,"size_class":null,"mass_kg":null,"dimensions":null,"purposes":[],"wikipedia_slug":null,"has_3d_model":false,"image_url":null,"decayed_at":null,"tle_current":{"epoch":"2026-09-21T20:07:48.031968Z","epoch_age_seconds":173352,"freshness":"STALE","line1":"1 60520U 24149BE  26264.83875037  .00205868  17210-4  74114-3 0  9998","line2":"2 60520  97.3705   4.1214 0005131 243.5637 116.5109 15.88680922118134","mean_motion":15.88680922,"eccentricity":0.0005131,"inclination_deg":97.3705,"raan_deg":4.1214,"arg_perigee_deg":243.5637,"mean_anomaly_deg":116.5109,"bstar":0.00074114,"rev_number":11813,"period_min":90.641234502091,"perigee_km":302.55055224806,"apogee_km":309.40979329075,"semimajor_km":6684.1171727694,"source":"CELESTRAK","updated_at":"2026-09-23T09:00:20.663572Z"}}}